User: anonymous   Login
Location: Newark
(51.4759°N, 7.0373°E)
Time: 11:19:31
(UTC+00:00)
Language:

N. Korean satellite - Orbit

View from above orbital plane
View from above orbital plane
View from above satellite
View from above satellite

Ground track
Ground track

The orbit data is extracted from the following two-line orbital elements,

1 39026U 12072A   20153.73411243  .00001250  00000-0  46851-4 0  9994
2 39026  97.2227 150.9956 0035801 301.6295  58.1454 15.28565203414901
Epoch (UTC): 01 June 2020 17:37:07
Eccentricity: 0.0035801
inclination: 97.2227°
perigee height: 455 km
apogee height: 504 km
right ascension of ascending node: 150.9956°
argument of perigee: 301.6295°
revolutions per day: 15.28565203
mean anomaly at epoch: 58.1454°
orbit number at epoch: 41490

The dashed part of the orbit path shows where the satellite is in the earth's shadow,  

DLR